Regional Weather Roundup
Issued by NWS

Home | Current Version | Previous Version | Text Only | Print | Product List | Glossary On
Versions: 1 2 3 4 5 6 7 8 9 10 11 12 13 14 15 16 17 18 19 20 21 22 23 24 25 26 27 28 29 30 31 32 33 34 35 36 37 38 39 40 41 42 43 44 45 46 47 48 49 50
000
ASUS45 KBOU 201707
RWRCO

WEATHER ROUNDUP FOR COLORADO
NATIONAL WEATHER SERVICE DENVER/BOULDER CO
1000 AM MST MON FEB 20 2017

NOTE: "FAIR" INDICATES FEW OR NO CLOUDS BELOW 12000 FEET WITH NO
SIGNIFICANT WEATHER AND/OR OBSTRUCTIONS TO VISIBILITY.

COZ001>005-013-030-031-201800-
...NORTHWEST COLORADO...

CITY           SKY/WX    TMP DP  RH WIND       PRES   REMARKS
CRAIG          CLOUDY    29  25  85 NE3       30.17R
HAYDEN         CLOUDY    27  23  86 CALM      30.16R VSB<1/4
MEEKER         CLOUDY    32  28  85 CALM      30.18R
MOUNT WERNER   NOT AVBL
STEAMBOAT SPGS CLOUDY    28  27  95 CALM      30.17R VSB 1/4
WALDEN         NOT AVBL
$$

COZ006>008-011-201800-
...WEST CENTRAL VALLEYS...

CITY           SKY/WX    TMP DP  RH WIND       PRES   REMARKS
GRAND JUNCTION FAIR      45  39  79 SE13      30.19R
MONTROSE       FAIR      43  34  70 E6        30.22F
EAGLE          MOSUNNY   36  25  64 CALM      30.21R
RIFLE          CLOUDY    45  34  65 VRB3      30.20R
DELTA          PTSUNNY   44  38  80 NE5       30.23R
NUCLA          FAIR      45  32  61 E9        30.25R
$$

COZ017>023-064>068-201800-
...SOUTHWEST COLORADO...

CITY           SKY/WX    TMP DP  RH WIND       PRES   REMARKS
DURANGO        FAIR      35  29  78 E7        30.24R WCI  29
CORTEZ         FAIR      42  34  73 CALM      30.22S
PAGOSA SPRINGS CLOUDY    32  25  74 CALM      30.26R
TELLURIDE      FAIR      30  18  61 SE6       30.25S WCI  24
WOLF CREEK PAS FAIR      23   7  50 SW3       30.30R
$$

COZ009-010-012-014-032>034-037-058>063-201800-
...CENTRAL COLORADO...

CITY           SKY/WX    TMP DP  RH WIND       PRES   REMARKS
ASPEN          FAIR      34  20  56 SE5       30.17S WCI  30
BUENA VISTA    FAIR      40   9  28 N6        30.14S
COPPER MTN     NOT AVBL
BERTHOUD PASS  FAIR      12   1  62 NW22G28   30.14R WCI  -7
COTTONWOOD PAS FAIR      36   1  23 SW5G18    30.15R
GUNNISON       FAIR      26  20  77 CALM      30.24R
KREMMLING      FAIR      37  30  75 E6        30.18R
LEADVILLE      FAIR      26  13  57 N8        30.16R WCI  18
MONARCH PASS   FOG       18  14  86 W22       30.28R VSB<1/4 WCI   0
SALIDA         FAIR      44  13  28 W13G22    30.21R
SUNLIGHT       NOT AVBL
WILKERSON PASS FAIR      25   5  42 W12G25    30.14R WCI  14
$$

COZ069>075-201800-
...SAN LUIS VALLEY/SANGRE DE CRISTO MOUNTAINS...

CITY           SKY/WX    TMP DP  RH WIND       PRES   REMARKS
ALAMOSA        FAIR      39  22  50 S9        30.18R
LA VETA PASS   FAIR      30  18  59 NE28G40   30.14R WCI  16
SAGUACHE       FAIR      39  19  45 NW21G30   30.17S
$$

COZ035-036-038>040-201800-
...NORTHERN COLORADO FRONT RANGE...

CITY           SKY/WX    TMP DP  RH WIND       PRES   REMARKS
DENVER INTL AP FAIR      52  13  21 NW13      30.00S
DMNS CITY PARK   N/A     54  11  18 N3        30.01R
AURORA         MOSUNNY   51  13  22 N8        30.02R
FRONT RANGE AP NOT AVBL
ERIE MUNI ARPT FAIR      53  10  17 E6        30.00R
BOULDER MUN AP FAIR      54  14  20 E6        29.98R
CENTENNIAL     FAIR      50  11  20 E6        30.03R
BROOMFIELD     SUNNY     52  14  22 SE3       30.01R
FORT COLLINS   FAIR      55  15  20 N20       29.96F
LONGMONT       FAIR      56  15  19 SE8       30.00S
$$

COZ041-046-047-076>085-087-088-201800-
...PIKES PEAK/PALMER DIVIDE AND SOUTHERN FOOTHILLS...

CITY           SKY/WX    TMP DP  RH WIND       PRES   REMARKS
COLO. SPRINGS  FAIR      51   5  15 N13       30.05R
A. F. ACADEMY  FAIR      48   6  18 VRB5      30.05R
SCHRIEVER AFB  FAIR      49   6  17 NW15      30.06R
ELLICOTT       FAIR     N/A N/A N/A N20       30.03R
FALCON         FAIR      48   4  16 NW12G17   30.07R
FORT CARSON    FAIR      51   5  15 NW8       30.04R
LIMON          FAIR      50  14  23 NW16      30.01S
MONUMENT HILL  FAIR      43  10  26 NW14      30.07R
TRINIDAD       FAIR      54  11  18 NW15G24   30.06R
$$

COZ042>045-048>051-090-091-201800-
...NORTHEAST COLORADO...

CITY           SKY/WX    TMP DP  RH WIND       PRES   REMARKS
GREELEY ARPT   FAIR      55  19  24 NW25      29.98R
AKRON          FAIR      53  17  24 N23G30    29.98R
BURLINGTON     FAIR      55  16  21 N31G43    29.96R
WRAY           NOT AVBL
STERLING       FAIR      54  19  26 N24G35    29.95S
HOLYOKE        FAIR      55  23  28 NW25G37   29.94R
FORT MORGAN    FAIR      54  15  21 NW24      29.99R
$$

COZ086-089-092>099-201800-
...SOUTHEAST COLORADO...

CITY           SKY/WX    TMP DP  RH WIND       PRES   REMARKS
PUEBLO         FAIR      57  11  16 NW15      30.03R
LA JUNTA       FAIR      55  24  30 W8        30.03R
LAMAR          FAIR      61  13  15 N22G31    29.97R
SPRINGFIELD      N/A     55  19  24 NW25G31   29.99R
$$



USA.gov is the U.S. government's official web portal to all federal, state and local government web resources and services.